Location: Ard�
(14.9067°N, 3.0288°W)
Time: 03:16:25
(UTC+00:00)

Daily predictions for brighter satellites

Satellite Brightness Start Highest point End
(mag) Time Altitude Azimuth Time Altitude Azimuth Time Altitude Azimuth
ATLAS 5 CENTAUR R/B 4.0 01:02:51 63° NE 01:02:51 63° NE 01:38:03 10° E
Centaur D-1AR AC-39 4.3 01:49:54 45° E 01:49:54 45° E 02:06:29 10° E
ADEOS Rocket 3.9 02:32:27 57° ENE 02:32:27 57° ENE 02:38:53 10° N
Cosmos 1833 Rocket 4.3 02:40:21 31° ENE 02:40:21 31° ENE 02:43:33 10° NE
SL-16 R/B 4.4 02:44:57 19° NNW 02:44:57 19° NNW 02:46:35 10° NNW
CZ-4C R/B 4.2 02:56:32 15° N 02:56:32 15° N 02:57:34 10° N
Cosmos 2082 Rocket 3.6 03:01:11 30° ESE 03:01:11 30° ESE 03:05:58 10° NE
Chandra Rocket (1) 4.1 03:01:47 45° WNW 03:03:54 52° NNW 03:08:56 10° NE
ARIANE 5 R/B 3.6 03:04:11 10° NNE 03:07:15 38° NNE 03:07:15 38° NNE
ATLAS 2A CENTAUR R/B 3.6 03:22:43 19° ESE 03:22:43 19° ESE 03:24:46 10° ESE
COSMOS 2406 3.6 03:25:48 51° NNW 03:25:48 51° NNW 03:30:14 10° N
Ariane H10-3 3.6 03:27:23 37° SSE 03:27:26 37° SSE 03:43:12 10° E
Cosmos 1805 Rocket 4.0 03:41:07 56° E 03:41:14 56° E 03:45:30 10° NNE
SL-08 R/B 4.0 03:40:46 28° SE 03:42:55 51° ENE 03:47:25 10° N
PAYLOAD A 3.9 03:40:26 10° N 03:45:38 84° W 03:46:13 71° SSW
Spot 4 Rocket 3.9 03:42:28 10° N 03:47:33 67° WNW 03:47:34 67° WNW
Nadezhda 2 Rocket 4.3 03:46:30 44° S 03:48:34 88° E 03:54:41 10° N
CZ-2C R/B 3.7 03:50:22 10° NNW 03:50:22 10° NNW 03:50:30 10° NNW
Cosmos 1812 4.5 03:50:15 10° NNW 03:51:50 23° NNW 03:51:50 23° NNW
USA 281 3.1 03:47:51 10° SSE 03:54:25 89° ENE 04:00:59 10° NNW
Cosmos 2315 Rocket 3.9 03:50:57 10° N 03:57:10 85° E 04:02:38 14° S
CZ-2C R/B 3.0 03:54:02 10° N 03:57:10 59° N 03:57:10 59° N
CZ-2C R/B 2.3 03:57:45 10° N 04:02:25 56° WNW 04:02:44 54° W
GPS 2-17 Rocket1 2.9 04:02:29 66° SSW 04:02:33 66° SSW 04:07:09 10° ESE
Meteor 1-20 Rocket 4.3 04:02:27 24° S 04:05:55 76° E 04:11:25 10° N
Cosmos 158 Rocket 3.7 04:05:24 52° SW 04:06:30 74° WNW 04:11:21 10° N
NOSS 3-4 (A) 4.1 04:07:12 31° WNW 04:08:01 32° WNW 04:13:09 10° N
NOSS 3-4 (C) 4.1 04:07:18 31° W 04:08:08 32° WNW 04:13:17 10° N
ATLAS 2AS CENTAUR R/B 3.0 04:13:44 29° SW 04:18:03 68° WNW 04:25:55 10° NNE
Cosmos 1833 Rocket 4.5 04:22:04 14° WNW 04:22:08 14° WNW 04:25:02 10° NW
Cosmos 1818 4.4 04:21:03 29° W 04:22:23 32° WNW 04:27:13 10° N
Cosmos 1666 Rocket 3.6 04:19:13 18° S 04:22:23 76° E 04:26:42 10° N
Stardust Del rocket 3.8 04:19:30 31° WSW 04:22:23 73° SSE 04:26:01 10° ENE
Sich 1 3.3 04:24:52 36° SW 04:26:03 45° W 04:30:14 10° NNW
ISS -2.1 04:24:46 20° SSE 04:26:14 29° SE 04:29:12 10° ENE
Cosmos 1680 Rocket 3.7 04:22:02 15° S 04:26:24 74° ESE 04:31:41 10° NNE
FALCON 9 R/B 1.6 04:28:36 19° SE 04:28:36 19° SE 04:29:57 10° E
GPS 2-14 Rocket1 3.1 04:27:50 34° SSW 04:28:56 45° SSE 04:32:35 10° E
Meteor 1-10 Rocket 4.5 04:23:44 10° NNW 04:29:13 47° W 04:34:08 12° SSW
ARIANE 5 DEB (SYLDA) 4.3 04:28:55 17° SSW 04:30:14 19° S 04:34:20 10° SE
ALOS 2.6 04:25:47 10° N 04:30:14 47° WNW 04:32:30 26° SW
Cosmos 2228 Rocket 3.0 04:31:17 10° N 04:35:42 75° W 04:40:05 10° S
Cosmos 1500 3.5 04:33:18 10° S 04:37:00 65° E 04:40:40 10° NNE
Cosmos 2082 Rocket 3.6 04:43:04 17° W 04:45:02 20° WNW 04:49:03 10° NNW
FENGYUN 3A 4.5 04:40:20 10° NNW 04:45:06 32° WNW 04:48:29 17° SW
Meteor 1-27 Rocket 3.7 04:39:46 10° NNW 04:45:10 59° W 04:50:34 10° S
GPS 2-15 Rocket1 3.3 04:44:45 20° WSW 04:48:06 71° SSE 04:53:02 10° E
FALCON 9 DEB 3.1 04:51:33 10° NW 04:54:50 52° SW 04:58:07 10° SSE
Cosmos 1633 Rocket 3.3 04:50:51 10° SSW 04:55:04 47° W 04:59:19 10° N
BREEZE-M DEB (TANK) 3.3 04:53:43 10° WNW 04:55:57 21° SW 04:57:58 10° S
SWIFT 4.2 04:55:21 10° SSW 04:58:22 19° SSE 05:01:24 10° ESE
Lacrosse 5 rocket 4.5 04:56:20 10° NNE 04:58:46 16° NE 05:01:16 10° E
Cosmos 1515 3.9 04:57:41 10° N 05:01:28 74° E 05:05:13 10° S
Cosmos 1484 Rocket 4.1 05:00:15 10° NNW 05:03:07 21° WNW 05:05:39 12° WSW
USA 238 DEB 4.5 05:00:42 10° NNW 05:08:12 66° ENE 05:15:48 10° SSE
Skynet4D Del rocket 4.3 05:02:37 11° SW 05:08:25 59° SSE 05:15:24 10° ENE
RESURS DK-1 2.9 05:04:54 10° SW 05:08:47 41° WNW 05:12:43 10° N
CENTAUR R/B 3.8 05:00:28 10° NNW 05:09:14 67° ENE 05:17:56 10° SSE
Nadezhda 1 Rocket 4.1 05:04:43 10° N 05:10:59 90° WNW 05:17:21 10° S
Cosmos 1707 Rocket 3.5 05:09:05 10° NNW 05:13:22 66° W 05:17:39 10° S
Meteor 1-31 Rocket 3.0 05:15:18 10° N 05:18:59 48° WNW 05:22:38 10° SSW
ASC 2 Rocket 3.3 05:16:44 10° WNW 05:21:05 63° NNE 05:25:05 10° E
Cosmos 44 Rocket 3.6 05:17:07 10° SW 05:21:58 53° WNW 05:26:59 10° N
Delta 202 3.9 05:16:53 10° WSW 05:22:17 87° SSE 05:29:19 10° E
